RH
66 67 68 66 63 62 59 50 43 33 30 29 23 24 25 33 41 46 52 62 74 73 75 78 79 79 74 72 71 76 69 64 74 78 88 82 70 70 65 61 57 58 61 64 64 61 61 55 54 53 48 48 41 37 34 32 32 29 28 27 29 28 28 28 28 28 26 28 28 26 26 27 30 31 31 30 30 29 28 28 27 25 24 23 22 22 21 20 19 19 17 15 14 10 7 7 8
81 77 75 74 71 70 60 42 37 35 31 27 19 17 12 13 19 28 39 50 62 64 65 70 74 75 74 75 71 65 60 55 61 76 81 70 65 66 61 59 57 59 60 62 61 57 57 53 50 47 45 44 37 31 31 29 28 26 27 27 28 28 26 25 25 24 23 24 25 25 25 27 28 27 28 28 29 29 29 28 26 25 24 24 23 23 22 22 22 21 19 17 15 12 7 7 9
84 83 86 86 76 69 57 44 41 36 31 26 20 20 15 13 13 22 38 45 48 51 53 54 58 64 70 70 60 52 48 43 47 67 71 61 61 62 59 57 56 58 59 59 57 54 53 50 46 41 38 37 33 30 30 29 28 26 25 25 26 26 26 25 24 24 24 23 24 24 24 26 26 25 26 26 26 26 26 26 24 24 24 24 24 23 21 21 22 23 22 19 17 14 9 8 10
84 83 88 86 75 66 56 50 44 34 31 28 25 24 20 15 13 20 32 36 34 36 38 37 41 48 56 54 44 42 40 37 40 53 62 56 50 55 58 53 52 51 53 54 53 51 48 46 43 39 35 32 30 29 30 30 28 26 24 24 24 25 26 26 26 25 25 25 25 25 25 26 25 25 24 24 24 24 24 24 24 25 25 26 26 24 22 21 20 22 23 21 18 17 12 9 11
81 79 78 74 68 63 61 57 48 39 32 29 27 27 26 25 22 19 18 21 24 28 27 25 26 31 42 43 39 44 38 34 38 43 53 51 39 44 51 49 48 44 45 50 51 50 46 43 40 38 36 33 31 29 31 31 28 25 24 23 24 25 26 28 28 27 27 27 27 27 28 28 28 27 26 27 28 27 28 28 27 27 27 27 27 26 24 23 21 21 22 23 19 19 16 10 13
82 82 75 70 62 57 68 64 50 42 30 26 26 28 32 33 31 25 22 25 28 26 21 22 23 24 34 37 38 41 31 27 33 39 45 43 34 37 44 46 46 41 40 45 50 49 45 40 36 35 36 36 33 31 31 30 27 26 25 24 25 26 27 29 28 29 29 30 30 31 32 32 32 31 31 32 32 33 34 34 33 31 29 28 28 28 28 26 24 22 21 23 21 21 20 13 14
84 79 69 69 63 61 70 55 39 36 33 33 29 32 34 34 32 28 28 29 30 23 17 21 19 23 25 29 39 30 19 24 28 35 39 36 34 38 43 41 40 39 36 36 41 44 43 38 34 33 34 36 35 33 30 28 27 25 25 24 25 26 26 27 27 28 30 31 33 33 34 35 35 35 36 36 36 38 39 40 39 37 34 32 30 28 28 28 26 24 21 22 21 20 22 17 14
83 72 65 63 62 65 64 45 36 38 43 47 36 35 37 35 36 34 31 27 26 24 25 23 19 29 23 24 45 30 17 23 23 30 36 34 36 40 40 36 35 35 32 31 35 40 40 39 36 33 33 33 34 34 32 29 27 24 24 24 25 24 23 24 26 27 29 31 32 34 35 36 37 37 39 40 41 41 42 43 42 40 38 37 35 33 31 28 27 26 23 21 21 20 21 19 16
83 72 70 60 60 68 61 45 39 35 38 36 28 32 36 36 39 42 43 39 36 30 31 29 28 36 22 17 33 23 16 21 24 34 36 34 37 43 42 35 33 32 30 29 32 36 37 39 40 37 35 33 33 34 33 30 27 25 24 24 24 23 22 23 25 27 29 30 31 32 33 34 35 37 39 39 40 41 42 42 41 41 40 41 40 39 37 35 32 30 28 23 22 20 20 21 19
85 78 75 65 66 75 69 56 41 29 29 27 24 26 30 35 34 37 44 47 40 30 27 27 27 24 14 13 14 11 18 22 25 32 34 33 34 40 41 35 32 30 30 29 30 32 33 36 38 38 37 34 31 29 29 28 26 24 23 22 23 23 22 24 26 28 29 30 31 32 33 34 35 36 36 36 36 36 36 36 36 37 37 41 42 43 42 42 41 38 36 30 26 23 21 21 21
85 80 77 76 75 76 71 66 54 37 34 35 34 30 27 29 31 32 36 43 42 33 28 25 25 18 9 12 12 18 27 25 23 27 30 30 29 32 33 32 31 30 29 29 30 30 29 30 32 36 36 33 28 26 25 25 24 23 22 21 22 22 23 25 28 30 31 33 33 34 35 35 36 36 37 37 38 37 37 37 36 36 36 37 38 40 41 43 44 44 43 39 35 31 26 21 20
84 81 82 85 82 83 73 69 65 48 43 43 42 45 43 36 38 37 31 36 41 35 26 19 24 22 9 9 15 24 31 25 19 23 25 22 21 23 23 24 25 25 25 24 26 26 25 24 27 31 31 29 26 26 26 25 25 23 23 23 23 25 27 29 31 33 34 34 35 35 36 36 36 35 36 37 37 38 38 38 38 39 39 39 38 38 37 38 41 43 45 45 43 40 37 29 22
81 78 81 79 73 82 79 74 64 48 47 46 43 47 50 48 46 43 34 31 32 31 26 13 10 13 14 21 22 20 26 22 14 15 17 14 14 14 14 15 17 18 18 19 20 20 20 22 23 25 24 23 23 24 25 25 24 23 24 25 26 27 29 30 30 31 31 32 32 32 32 32 33 36 39 42 43 44 45 45 43 42 41 41 41 40 39 37 37 38 40 43 45 46 47 43 35
75 68 75 74 66 70 79 82 65 54 50 40 44 49 49 57 56 49 39 34 31 25 22 11 5 10 17 25 20 10 14 13 9 10 11 13 12 11 10 10 11 12 14 15 17 18 19 21 20 21 21 20 22 23 23 22 22 22 23 23 24 25 25 26 26 27 28 30 32 34 38 41 44 49 53 56 58 59 60 59 56 53 50 48 47 46 44 44 43 42 42 43 44 44 46 49 49
72 62 70 77 78 76 77 79 69 63 51 35 42 48 48 48 43 37 32 37 39 32 25 11 7 13 14 13 10 7 10 10 9 10 9 12 12 12 11 10 10 10 11 13 14 16 17 18 19 21 22 23 24 23 23 22 22 22 23 23 24 26 27 28 29 31 32 34 39 43 47 48 49 51 54 56 58 61 61 60 58 57 55 54 54 53 52 51 51 52 52 52 51 51 48 47 50
75 74 80 84 85 81 71 73 77 62 42 40 42 35 37 34 25 24 31 42 42 44 43 26 14 9 9 7 7 10 11 12 11 10 9 9 11 13 13 11 10 9 10 11 12 13 15 18 20 22 25 27 25 25 25 24 24 25 26 28 29 30 31 32 33 34 35 36 39 42 43 43 43 43 45 48 51 55 55 53 52 51 51 52 53 53 53 51 50 50 50 51 51 53 56 55 50
75 81 86 84 76 75 69 73 79 56 36 48 49 31 27 27 25 24 32 44 42 43 46 44 31 8 4 6 7 11 10 12 12 12 13 12 13 14 14 14 12 11 11 11 11 12 15 20 23 25 26 26 25 26 26 27 28 30 33 33 34 34 34 35 34 34 35 36 37 40 43 44 46 45 47 48 48 49 50 50 49 47 44 45 48 51 53 51 48 47 45 46 47 47 53 62 62
72 74 78 75 70 74 74 71 67 54 41 44 46 34 26 23 26 31 34 39 43 45 40 39 30 6 2 6 6 10 10 13 15 17 18 18 19 19 20 21 20 21 18 16 15 13 14 20 26 27 27 25 23 26 30 32 33 34 36 34 34 34 34 33 33 36 38 41 44 44 46 48 49 49 52 52 49 48 49 48 47 46 43 41 43 48 52 52 50 50 50 49 48 48 48 55 67
71 73 76 72 73 78 76 69 61 58 48 38 41 39 33 25 26 41 43 34 33 35 30 20 10 4 3 5 7 8 10 13 16 18 19 21 22 23 25 26 28 30 31 30 28 25 22 23 26 26 23 19 19 25 29 28 27 28 32 33 32 30 30 32 34 38 40 46 51 48 45 45 45 46 49 50 49 52 52 48 46 46 48 49 50 50 48 48 49 50 50 49 47 48 49 47 56
71 75 73 70 71 77 83 76 63 64 53 34 32 30 30 30 31 48 50 39 35 27 21 14 3 5 4 4 8 7 9 11 13 17 19 22 22 25 28 29 31 33 37 39 40 39 36 33 31 29 24 21 21 25 26 23 19 21 30 35 33 31 31 33 35 37 42 51 54 48 41 37 39 40 42 45 45 51 57 58 55 49 51 56 59 58 52 50 51 51 47 47 45 43 45 46 47
70 76 71 68 61 63 79 78 65 58 44 27 22 20 25 36 38 47 47 37 39 31 19 16 5 5 5 4 7 6 9 9 11 14 16 20 20 23 25 27 31 34 38 39 41 41 40 38 36 34 31 27 26 26 27 25 21 25 37 36 28 28 28 29 29 32 43 52 53 47 39 35 38 40 44 50 47 49 58 60 56 53 57 62 64 62 58 54 56 60 56 50 48 45 43 45 47
66 76 71 68 68 69 62 58 64 48 30 34 33 19 16 32 37 43 53 40 37 33 19 17 8 3 6 4 6 6 8 10 10 11 12 15 16 19 22 26 31 34 38 38 39 39 38 38 34 34 32 30 31 31 30 28 29 36 44 37 24 23 23 23 24 33 45 51 53 45 36 36 38 38 43 49 47 49 53 50 45 46 55 59 59 57 53 51 51 56 58 53 51 49 46 45 47
62 70 67 68 81 81 50 43 69 54 34 42 34 16 9 21 28 35 54 47 36 29 14 13 8 3 6 4 5 6 7 11 11 9 10 13 16 20 24 29 32 34 36 37 38 38 38 38 35 34 33 35 36 37 36 33 36 39 41 37 28 26 25 26 31 40 49 52 51 41 35 34 31 30 34 38 37 40 43 42 39 38 43 48 51 52 50 51 51 54 58 60 60 55 53 50 46
64 68 71 72 73 64 45 45 57 44 32 33 22 14 13 20 23 19 29 31 28 22 8 7 5 4 6 4 6 6 7 10 11 10 9 13 17 21 26 30 33 34 34 33 32 32 34 34 33 31 30 32 30 31 33 34 37 39 39 37 33 30 29 33 40 45 53 57 49 37 42 39 29 30 35 39 35 29 32 33 33 32 33 35 38 42 42 45 50 56 61 63 62 61 62 60 53
62 69 70 61 48 37 37 36 31 27 25 23 15 12 14 22 25 13 10 15 18 17 9 5 4 5 6 5 6 6 8 11 13 12 8 12 16 18 24 27 28 27 25 24 21 19 18 18 18 16 14 16 15 16 23 28 34 38 36 33 34 34 36 41 44 48 52 51 41 31 36 33 27 29 28 33 31 22 23 23 24 25 25 25 27 29 28 32 39 45 49 50 52 56 63 67 65
63 65 59 46 33 29 32 25 23 28 20 13 9 8 12 20 25 15 8 12 15 14 13 9 7 8 8 6 6 6 8 13 15 12 8 10 12 14 16 18 18 16 15 14 13 10 8 8 8 7 6 6 7 9 15 19 27 38 35 33 43 42 41 44 43 45 41 32 25 18 18 17 16 18 17 20 23 20 22 24 25 26 25 26 29 29 23 21 24 27 31 35 40 45 54 63 70
70 63 56 48 36 38 36 25 25 23 15 14 9 7 9 14 22 18 10 10 11 11 10 11 11 12 12 7 5 6 7 11 15 13 10 9 9 9 8 9 9 8 9 8 8 7 6 7 6 5 5 5 7 9 11 10 15 25 21 26 49 48 35 36 34 29 23 18 18 14 12 12 11 14 18 24 29 33 34 33 29 27 29 27 30 33 28 21 16 15 19 23 28 32 36 43 49
70 64 55 45 35 41 36 23 24 20 16 23 20 11 9 15 19 17 14 10 9 11 9 8 9 9 9 6 5 5 6 8 11 13 11 8 6 6 5 6 6 5 6 5 6 6 7 9 7 6 5 6 7 7 9 9 8 10 14 31 47 38 26 27 23 16 13 13 19 24 23 22 25 28 31 33 34 34 31 28 22 18 18 14 15 21 22 19 13 9 10 14 17 20 23 25 26
69 63 49 40 39 43 36 24 22 20 16 22 30 22 13 19 20 19 21 13 8 10 9 7 7 6 5 5 5 4 5 6 7 10 9 7 6 5 6 7 6 5 4 5 6 6 7 10 9 7 6 6 6 7 6 7 7 8 28 47 34 17 16 18 16 16 14 11 19 32 32 28 29 27 23 21 21 20 17 13 10 7 6 5 6 8 9 9 8 6 6 7 8 9 14 19 21
68 66 53 45 50 52 49 38 24 19 16 25 40 35 24 23 21 21 25 23 15 7 5 8 6 5 5 5 6 5 5 5 5 6 7 7 7 6 7 8 7 6 4 4 4 5 7 8 8 7 7 7 5 6 6 6 8 8 19 28 14 6 11 10 11 14 13 12 17 21 19 16 17 21 22 14 7 7 8 6 4 4 5 5 6 5 6 5 5 6 7 7 5 5 6 10 15
65 71 67 58 66 70 62 50 40 33 27 31 42 43 38 31 24 22 22 27 28 18 10 10 9 6 7 8 9 7 6 6 7 6 6 7 7 8 8 8 7 6 5 5 4 5 6 6 6 6 6 6 4 5 6 4 7 8 8 9 9 11 11 9 11 11 11 14 16 12 10 11 20 44 54 43 26 10 3 5 4 5 5 5 6 5 6 6 6 7 7 7 6 6 5 5 7
67 71 68 65 82 89 70 56 57 57 48 40 39 45 49 41 31 25 21 25 30 32 25 17 15 11 10 13 13 13 10 8 8 7 8 8 8 8 8 8 7 6 5 5 5 5 5 5 5 6 5 5 5 5 5 5 5 8 10 10 11 13 13 13 11 10 11 16 19 14 9 8 16 34 38 38 35 14 3 6 5 6 7 6 7 6 6 6 6 6 6 7 7 7 8 8 6
73 72 70 72 86 87 75 75 78 73 65 53 41 45 53 48 37 27 24 23 23 32 34 29 23 16 17 19 13 14 15 12 10 9 8 8 8 8 6 6 5 5 5 4 5 5 5 5 5 5 5 5 6 5 6 8 9 9 10 12 12 11 11 10 9 9 9 11 15 14 9 5 6 10 9 14 18 8 4 7 6 7 7 6 7 6 6 6 6 6 6 6 7 6 8 11 11
72 70 74 79 89 87 80 85 85 75 64 56 56 56 56 53 43 33 28 23 24 30 32 33 28 17 19 21 12 10 14 15 14 12 12 9 7 8 8 7 4 4 5 4 5 4 4 5 5 5 5 6 6 7 9 10 12 12 11 11 9 6 7 7 9 9 6 5 6 9 9 7 5 7 6 7 7 5 7 6 6 7 6 7 7 6 6 6 6 6 6 6 6 6 6 9 12
63 62 67 67 79 90 85 78 75 72 61 54 67 67 56 55 47 39 35 26 28 34 29 28 27 18 15 16 12 9 9 12 13 12 13 13 7 6 10 10 7 5 5 5 5 5 5 5 6 8 8 8 7 7 9 10 12 14 13 10 7 6 6 7 7 6 5 5 4 5 7 6 5 6 5 5 6 6 7 6 7 8 7 7 7 6 7 6 7 6 6 6 5 6 6 6 9
59 59 64 58 63 72 72 75 77 76 72 62 64 63 54 58 54 43 41 34 32 37 32 28 28 22 17 14 10 8 7 8 12 13 15 17 11 7 7 8 9 6 4 5 5 5 5 7 9 11 12 11 10 10 11 9 9 10 10 9 7 7 6 6 6 6 5 5 5 5 5 5 5 5 5 6 6 6 6 7 7 7 8 8 7 7 7 7 7 7 7 7 6 6 5 5 6
59 57 62 59 58 58 55 73 80 72 78 71 65 76 70 63 59 46 41 42 42 39 31 31 34 26 23 22 15 9 6 6 11 16 18 18 14 10 8 6 7 6 5 5 5 6 8 11 11 9 10 10 11 11 10 9 8 8 9 9 9 8 7 7 6 6 6 6 6 6 5 6 5 5 6 5 6 6 7 7 7 8 8 8 8 8 8 8 8 8 8 8 7 6 5 5 5
58 54 59 58 53 51 49 64 74 67 70 62 58 81 79 58 54 53 49 47 48 44 30 30 38 34 26 23 19 13 8 7 10 12 15 14 10 8 8 6 6 6 6 6 8 11 11 11 9 7 7 8 9 10 9 9 9 10 10 9 10 9 9 8 7 7 7 6 7 7 6 6 6 5 6 6 6 6 6 7 7 8 8 8 9 9 9 9 9 9 9 8 8 7 7 6 5
56 54 57 56 47 44 45 55 66 62 60 55 51 62 67 63 61 59 57 52 52 51 37 29 33 39 38 26 18 15 11 8 8 9 11 11 8 7 7 6 7 7 7 8 11 12 9 7 7 7 7 8 9 9 9 10 10 10 11 10 10 10 10 9 9 9 8 8 7 8 8 8 7 6 5 6 6 6 7 7 7 7 8 8 9 9 10 10 10 10 9 9 9 8 7 6 5
52 53 53 53 45 40 43 54 62 60 59 59 53 47 51 63 64 58 59 60 58 53 45 36 30 34 41 36 24 17 13 10 8 7 8 8 7 7 7 6 7 7 7 8 9 8 7 7 7 7 8 8 9 9 9 9 9 10 10 11 11 10 11 10 10 10 9 10 9 9 9 9 9 8 7 7 6 6 6 6 7 7 8 8 9 10 10 10 10 10 10 10 10 9 9 8 7
49 49 49 46 42 38 43 55 59 59 63 61 52 46 45 51 53 55 63 65 63 59 53 48 42 34 32 36 35 25 17 13 9 7 7 7 7 6 7 7 7 7 7 7 7 7 7 7 7 7 7 7 7 8 8 7 7 8 8 9 10 10 11 11 10 11 10 10 10 10 10 10 10 8 8 8 7 7 7 7 7 7 8 8 9 9 10 11 11 11 11 10 10 10 9 9 8
48 47 44 40 39 41 46 53 55 53 59 58 50 44 45 49 52 59 69 69 66 66 62 59 60 51 37 33 36 31 22 16 12 9 7 7 7 7 7 8 8 8 8 8 7 7 7 7 7 7 7 7 7 7 6 6 6 7 7 7 8 9 9 10 10 10 10 10 10 10 9 9 9 9 9 9 9 9 8 8 8 8 8 8 9 10 10 10 11 11 11 11 10 10 10 10 9
48 44 39 39 39 43 46 48 48 46 49 49 45 42 44 49 53 59 65 65 64 63 63 64 67 67 57 44 38 35 30 23 17 13 9 7 7 8 8 8 9 9 9 10 8 8 8 8 8 8 8 8 8 8 7 7 6 6 7 7 7 8 8 9 9 9 9 10 10 10 10 10 10 10 10 9 10 10 10 10 10 9 9 9 10 10 10 11 11 12 12 11 11 11 11 10 10
40 36 35 40 41 40 43 44 42 46 52 52 48 47 49 49 50 56 58 57 57 57 62 66 66 72 75 64 50 44 39 32 24 17 12 10 7 8 8 8 9 9 9 9 9 9 9 9 9 9 9 9 9 9 8 8 8 7 7 7 7 7 7 8 8 8 8 9 9 10 10 11 11 11 11 11 11 11 11 11 11 11 10 10 10 10 11 11 11 12 12 12 11 11 11 11 11
30 32 36 38 39 37 39 42 44 50 56 56 54 52 53 55 54 58 59 54 54 62 71 70 63 66 71 70 64 54 45 39 31 22 16 13 9 8 8 8 9 9 9 9 9 9 9 9 10 9 9 9 9 9 9 9 9 8 7 7 7 7 8 8 7 8 8 8 8 9 10 11 11 12 12 12 12 12 12 12 12 12 11 11 11 11 12 11 12 12 12 12 12 11 12 12 11
29 32 37 36 36 36 38 47 56 64 64 56 55 54 54 59 58 58 58 56 61 73 78 72 66 66 67 66 62 52 44 42 38 30 22 17 12 10 10 10 10 10 10 10 10 10 10 9 9 10 9 9 9 9 10 10 9 9 8 8 8 7 8 8 8 8 7 7 7 8 9 10 11 12 13 13 13 13 13 13 13 13 13 13 12 12 12 12 13 12 13 12 12 12 12 12 12
32 35 37 37 38 36 37 43 50 60 66 61 57 55 53 56 57 58 58 57 63 72 73 71 70 72 69 61 56 53 47 43 40 33 23 15 12 11 11 11 11 12 11 11 11 10 10 10 9 9 8 8 8 8 9 9 10 10 9 8 8 8 8 8 8 8 8 7 7 8 8 9 10 12 13 14 14 14 14 14 14 14 14 14 13 13 13 13 13 13 13 13 12 13 13 13 12
35 40 39 40 42 41 40 39 39 43 52 56 54 50 48 50 53 56 59 60 63 67 68 67 67 70 70 65 66 68 59 46 40 36 30 21 15 14 13 12 13 13 13 14 14 12 10 9 9 8 8 8 7 7 7 7 8 9 9 9 9 8 8 8 8 8 8 8 7 7 8 8 10 11 13 14 15 15 15 15 16 15 15 15 14 14 14 14 14 14 13 13 13 13 13 13 12
37 40 39 41 43 46 44 38 39 38 39 43 44 40 43 52 59 61 64 65 64 66 65 64 64 65 64 62 64 66 60 50 41 35 32 26 20 18 15 13 13 14 15 16 18 18 16 14 12 9 9 9 9 8 7 6 7 8 9 9 9 9 9 9 9 9 9 9 8 7 8 9 10 11 13 15 15 16 16 16 17 16 16 16 15 15 15 15 15 15 15 14 14 14 13 14 12
37 39 35 37 39 44 46 41 39 37 35 37 37 36 38 49 61 65 66 66 63 64 65 64 63 56 49 47 49 49 47 44 40 35 32 28 24 20 15 11 11 13 15 16 19 22 23 24 22 19 16 14 11 9 8 6 6 8 10 10 9 10 9 9 9 9 10 9 8 7 8 8 9 11 12 14 15 16 17 17 17 17 17 16 16 16 15 16 15 15 15 15 14 14 14 14 12
33 36 33 36 39 43 47 46 42 38 36 34 35 41 43 47 55 57 59 63 63 64 67 68 63 52 43 42 45 43 37 35 37 37 35 34 29 22 18 14 12 12 12 12 14 16 19 25 29 30 24 14 9 8 7 6 7 9 10 10 9 10 10 10 10 10 10 10 8 7 7 8 9 10 12 14 15 16 17 18 18 18 18 17 17 17 16 16 16 16 16 15 15 15 14 13 12
33 36 36 38 42 44 47 49 46 46 49 48 49 55 56 56 59 57 58 62 65 65 66 67 65 57 50 45 41 39 34 31 30 27 28 37 37 29 24 19 12 9 8 8 8 9 13 21 30 32 23 10 7 8 7 8 9 10 10 10 10 11 11 11 11 12 11 10 9 7 7 8 9 10 12 14 16 17 17 18 19 19 18 18 18 17 17 17 17 17 16 16 16 15 15 14 11
40 39 37 34 36 42 47 49 50 52 57 59 60 61 60 60 62 60 58 60 62 62 62 62 62 60 57 50 44 41 34 26 21 19 21 32 38 32 25 18 11 8 8 9 9 11 18 25 32 31 19 10 10 10 10 11 10 10 10 8 9 10 11 12 13 13 11 9 8 7 7 8 9 11 13 15 16 17 18 18 19 19 19 19 19 18 18 18 17 17 16 16 16 15 14 13 11
40 40 40 35 35 43 49 50 49 51 55 55 53 53 56 58 59 58 58 59 59 56 54 57 60 61 59 58 59 55 43 31 27 24 21 28 40 41 30 18 12 10 10 10 10 14 25 33 35 32 23 15 12 11 10 10 9 9 8 8 9 9 11 16 18 14 10 9 8 7 8 9 10 11 13 15 16 17 18 19 19 19 19 19 20 19 19 19 18 17 17 16 16 15 13 12 10
42 41 43 42 37 40 46 48 48 53 58 57 51 49 53 56 56 58 60 61 60 53 51 55 60 61 60 60 59 54 47 41 37 31 23 24 38 45 34 19 14 13 12 12 11 15 29 40 40 36 30 21 14 11 10 8 8 8 7 8 8 8 15 24 21 13 11 11 8 8 9 10 10 12 13 15 17 17 18 20 20 20 20 20 20 20 20 19 18 17 17 16 16 15 13 11 9
43 42 44 44 41 39 42 45 48 50 53 55 53 53 56 57 56 56 58 59 59 57 56 57 58 59 58 56 52 50 50 46 39 32 23 18 24 30 26 19 15 13 13 12 12 18 33 42 37 28 23 20 18 16 12 9 9 7 7 9 8 16 33 36 23 14 13 10 7 8 9 10 11 12 14 16 17 18 19 20 20 20 20 21 21 21 20 19 18 17 17 16 16 14 12 10 9
34 41 45 44 43 43 41 41 43 44 45 47 48 51 56 60 61 61 62 61 58 58 58 58 60 61 59 57 56 55 52 44 38 32 23 19 23 24 21 21 18 14 13 13 14 21 33 39 32 19 14 16 19 19 15 11 10 9 10 9 10 24 40 39 29 21 13 7 8 9 9 10 12 14 16 17 17 18 19 20 21 21 21 22 22 21 20 19 18 17 17 17 16 13 11 9 9
31 36 44 45 43 42 38 39 42 42 43 42 44 51 57 61 65 68 70 69 65 63 63 63 64 61 59 58 54 51 47 43 40 33 23 22 27 26 22 21 18 14 13 13 13 15 21 25 22 15 12 13 16 19 16 13 12 11 10 9 16 33 44 45 42 28 11 7 9 9 9 11 13 15 16 17 18 19 21 21 22 22 22 23 23 22 20 19 18 17 17 16 15 12 10 9 9
Wind_Speed
17 17 15 14 14 15 15 13 15 16 16 18 17 15 14 13 11 9 8 9 8 7 8 7 7 7 7 6 7 8 8 11 12 12 13 11 11 12 12 13 14 17 17 17 17 16 16 16 17 17 17 16 16 15 14 12 11 10 9 9 8 8 6 5 5 4 4 5 5 6 6 6 6 6 6 6 6 6 6 6 5 5 4 4 4 4 4 3 2 1 1 1 2 1 1 2 3
16 15 16 15 13 14 12 11 17 17 14 15 16 16 15 14 11 11 10 10 9 9 9 7 7 6 6 6 5 8 9 10 14 15 12 10 12 12 12 13 15 17 17 17 17 17 16 16 16 16 17 16 16 15 14 12 10 8 8 7 7 7 6 5 5 4 4 5 5 5 5 5 5 5 5 5 6 5 5 5 4 4 4 5 5 5 4 4 3 2 1 1 2 2 1 2 3
16 15 17 15 12 12 12 15 19 15 13 13 15 16 15 13 11 12 11 10 10 11 11 9 8 7 8 7 6 10 9 8 14 16 10 9 13 12 12 13 15 16 17 17 16 16 16 16 15 15 15 15 15 15 13 10 8 7 6 6 5 5 5 5 4 4 4 4 4 4 4 4 4 4 5 5 5 5 4 4 4 5 5 5 5 5 5 5 5 4 2 2 2 2 2 2 2
15 14 14 12 12 12 14 19 18 12 12 13 14 15 13 11 11 11 11 11 11 12 11 11 10 10 12 9 9 12 8 8 13 17 11 8 13 13 12 14 15 16 17 17 16 16 16 15 14 14 14 14 14 13 12 9 7 5 5 4 4 4 4 4 4 4 4 3 3 3 4 4 4 4 5 5 6 5 5 5 6 6 6 6 6 6 7 7 7 7 5 4 3 3 2 1 1
14 13 12 11 14 15 16 19 15 11 13 13 12 13 11 10 11 10 11 10 10 12 11 11 10 11 13 9 11 12 8 10 12 16 14 9 12 14 13 14 14 16 17 16 16 15 15 14 13 13 13 13 12 12 11 8 6 4 4 3 3 3 3 3 3 3 3 4 4 4 4 4 5 5 6 7 7 6 6 7 7 7 7 7 7 8 9 9 9 9 7 5 4 3 2 1 0
16 14 13 13 15 17 18 17 12 11 13 12 10 11 9 8 9 8 9 8 8 10 10 11 10 11 12 10 12 11 10 12 11 14 15 11 11 14 14 14 14 15 16 16 16 15 14 14 13 12 12 11 11 10 9 7 5 4 3 2 2 2 3 3 3 3 3 4 4 4 4 5 6 7 7 7 7 7 7 8 8 8 8 8 8 8 9 9 9 9 8 7 5 4 3 2 1
15 13 13 15 16 18 17 13 12 12 12 11 8 9 8 8 8 8 8 6 7 8 9 9 9 11 10 12 13 10 12 14 12 12 14 12 11 13 14 14 13 14 15 15 15 14 14 13 13 12 11 10 9 8 7 6 4 3 2 2 2 2 2 3 3 3 4 4 4 5 6 6 7 7 7 7 7 7 8 8 8 8 8 8 8 7 7 7 7 8 8 8 6 5 4 3 3
12 11 14 15 17 18 15 11 13 13 11 10 8 8 6 6 6 7 8 6 7 6 7 7 7 10 7 11 13 11 13 14 13 13 13 13 11 12 13 13 13 14 14 14 14 13 13 12 11 11 10 9 8 7 6 5 3 2 2 2 2 2 2 3 3 3 4 5 5 6 6 6 7 6 7 7 7 7 7 7 7 7 7 7 6 6 6 6 7 7 7 7 6 5 4 4 3
11 13 14 14 17 15 12 12 13 12 11 10 9 8 6 6 5 5 6 5 6 5 6 5 5 7 6 10 12 11 13 13 14 13 13 13 12 12 11 12 12 13 13 13 13 12 12 11 10 9 9 9 7 7 6 4 3 2 1 1 1 1 1 2 3 4 5 6 6 6 6 6 6 6 6 6 5 5 6 6 5 5 5 5 5 5 6 6 6 7 6 6 6 5 4 4 4
10 13 13 13 16 13 11 11 13 13 12 11 10 9 8 8 7 6 6 5 6 5 4 5 5 6 7 9 11 11 13 12 13 13 13 13 13 13 12 12 11 12 12 11 12 11 11 10 9 8 8 8 7 6 6 4 3 2 2 1 1 1 2 3 4 5 5 6 6 6 6 6 6 6 5 5 5 5 5 5 4 4 4 5 5 5 5 6 6 6 6 6 6 5 4 4 3
13 13 13 14 15 12 11 11 11 11 11 11 10 10 10 10 9 7 7 6 8 7 4 6 7 6 7 9 10 13 14 12 13 12 12 12 13 13 12 12 11 12 12 11 10 9 9 9 8 7 7 6 6 6 5 4 3 2 2 2 2 3 3 3 4 5 5 6 6 5 5 5 5 5 5 5 6 5 5 5 5 5 4 5 5 5 6 6 6 6 6 6 5 5 4 4 3
13 14 14 16 16 12 11 10 9 9 10 10 9 9 9 9 8 8 8 7 9 8 6 6 5 5 8 8 9 12 14 13 12 12 12 11 12 12 12 12 12 12 11 11 10 9 9 8 8 6 6 6 6 6 5 3 3 2 2 2 3 3 3 3 4 4 5 4 5 5 5 5 5 5 6 6 7 7 6 6 6 6 6 5 6 6 6 7 7 6 7 7 6 6 5 4 4
11 14 16 18 19 16 11 8 8 8 8 8 8 8 8 7 7 7 8 7 8 8 7 7 5 8 9 7 8 11 13 13 12 12 12 11 11 11 11 12 11 12 11 11 10 9 9 8 7 6 6 6 5 5 4 3 3 2 2 3 3 3 3 3 4 4 4 4 4 5 6 6 6 6 6 7 7 8 8 8 7 7 7 6 7 7 7 7 8 7 8 8 7 7 6 6 5
7 13 20 21 22 20 15 9 7 7 6 7 7 7 7 7 7 6 6 7 8 9 9 8 7 9 10 8 9 11 13 13 13 13 12 12 11 10 10 10 10 10 10 11 11 10 10 9 8 7 6 6 5 5 4 3 3 3 3 3 3 3 4 4 3 3 3 4 4 5 5 6 6 6 6 7 7 8 8 8 8 8 8 7 7 7 7 7 8 8 8 9 9 9 8 7 7
9 17 24 21 19 19 15 9 5 4 5 6 6 5 5 6 6 5 5 6 7 8 9 9 8 9 10 10 10 12 13 12 13 14 14 13 12 11 10 9 9 9 9 9 10 10 10 9 8 8 7 6 5 5 4 3 3 3 4 4 4 4 4 3 3 3 3 3 3 4 4 5 6 7 7 8 8 8 8 8 8 8 8 8 8 8 8 8 8 8 8 8 9 10 10 9 9
16 19 20 17 15 15 15 10 3 2 4 5 5 5 4 4 4 4 5 4 4 5 6 7 8 8 10 11 11 13 13 13 13 14 15 15 14 13 12 11 10 9 9 8 8 9 9 9 8 8 7 6 5 5 4 4 4 4 4 4 4 4 3 3 3 3 3 3 3 4 5 6 7 8 8 9 9 9 9 8 9 9 9 9 9 9 9 9 9 9 9 9 9 10 10 10 10
21 17 14 14 15 17 18 13 4 2 4 3 4 4 3 3 3 3 3 2 3 4 4 6 7 7 9 11 12 13 14 14 14 14 14 14 15 14 13 12 12 11 10 9 9 9 9 9 9 8 7 6 6 5 5 5 4 4 4 4 4 3 3 3 3 3 3 3 4 4 5 6 7 8 9 9 10 10 10 9 8 9 10 10 9 9 10 10 10 10 10 10 11 11 10 10 10
20 18 12 5 8 13 15 10 4 3 3 3 4 4 3 3 2 3 2 2 2 3 4 5 6 7 9 11 13 14 14 13 13 13 14 14 14 14 14 13 13 12 11 10 10 10 10 10 9 8 7 6 6 5 5 5 4 3 4 4 4 3 3 3 3 4 4 5 5 5 6 6 7 7 8 9 10 10 10 10 10 10 11 12 11 10 9 10 11 10 10 11 12 13 12 10 9
15 12 7 4 9 9 8 5 2 2 2 3 4 4 4 3 3 4 2 2 2 3 3 4 5 6 8 11 13 14 14 13 13 13 13 14 13 13 13 13 13 13 12 12 11 11 10 9 8 6 5 5 5 5 5 4 3 3 4 4 3 3 3 3 4 4 5 6 6 6 6 7 7 7 8 9 10 11 12 13 13 12 12 13 13 12 11 10 11 11 11 12 13 13 12 11 10
13 4 5 5 9 8 2 1 3 2 2 3 3 4 4 4 5 4 2 1 1 2 2 2 4 5 7 9 12 12 14 13 13 13 13 13 12 12 12 12 12 12 12 12 11 11 10 9 8 7 6 7 7 7 6 6 5 4 4 3 3 3 2 3 4 3 5 8 8 7 7 7 7 8 8 9 10 11 12 13 14 14 13 13 14 14 14 12 12 11 11 12 14 14 13 13 13
7 6 5 2 8 7 2 1 3 2 2 4 3 5 5 5 4 3 2 2 1 0 0 1 3 5 6 8 10 11 12 12 12 12 12 12 11 11 11 10 10 10 10 10 10 9 9 8 8 7 7 7 7 7 7 6 6 6 4 4 4 3 2 2 3 3 6 8 8 8 7 8 9 9 10 11 11 11 12 12 12 13 14 14 13 13 15 15 13 12 11 12 14 15 14 15 16
3 5 11 7 8 4 3 2 2 3 2 4 5 6 6 5 4 3 2 2 1 0 2 1 3 5 6 7 8 9 10 10 10 11 11 11 10 10 9 9 9 9 9 8 8 8 7 7 7 7 6 7 7 6 6 6 6 5 4 4 4 3 3 2 3 5 7 8 8 7 8 9 10 10 12 12 11 12 12 12 11 13 14 14 13 13 14 14 14 14 13 13 15 16 15 15 16
5 7 9 7 6 4 3 2 1 2 2 4 5 7 7 6 5 4 1 2 1 1 2 3 4 4 6 7 7 7 8 8 8 10 10 10 10 9 10 9 9 9 9 9 8 8 8 7 7 7 6 6 7 7 6 7 6 6 5 5 4 4 4 4 5 6 8 9 8 8 8 9 11 11 12 12 12 13 13 13 13 13 13 14 14 14 13 13 13 14 14 15 17 17 16 16 16
6 8 4 5 6 5 4 3 1 1 2 4 5 7 8 7 5 3 1 2 3 2 2 3 4 4 5 5 5 6 6 7 7 8 9 9 10 9 10 10 9 9 9 9 9 10 9 8 8 8 8 7 8 8 7 8 8 7 6 6 6 6 6 5 6 8 9 10 8 8 9 10 11 11 11 12 12 13 13 14 15 14 14 14 15 15 14 14 13 13 13 15 16 17 17 18 18
7 8 5 6 5 4 4 3 2 2 3 4 4 5 7 7 7 5 3 4 4 3 2 2 3 4 4 4 4 5 5 6 6 7 8 9 9 10 10 9 9 9 9 9 9 10 10 10 10 9 10 9 9 10 9 9 8 7 6 7 7 7 7 6 8 10 10 9 8 9 10 10 11 11 11 11 12 13 13 14 14 15 16 16 17 17 16 16 15 14 14 15 16 17 17 18 19
12 13 8 6 4 3 4 3 2 1 3 4 3 3 5 7 7 5 4 4 4 3 3 2 3 3 4 4 4 4 5 6 6 7 7 8 9 9 10 9 8 8 8 8 8 9 10 10 10 10 10 10 9 10 11 9 8 7 6 6 8 9 8 8 9 10 10 10 10 11 12 11 11 10 11 11 12 14 14 14 14 15 16 16 17 16 16 16 15 15 15 16 17 17 17 17 18
14 15 12 8 4 3 4 3 3 2 3 5 4 3 4 5 6 5 3 3 3 3 4 3 3 4 4 4 4 4 5 6 7 8 8 8 9 10 9 9 8 8 8 8 8 8 9 10 10 10 10 10 10 11 11 10 9 8 8 7 8 9 9 10 10 10 10 10 11 12 12 12 11 11 11 11 12 13 14 15 16 16 15 15 15 16 16 17 17 17 16 16 16 17 16 16 17
14 15 14 8 5 3 3 3 2 1 3 5 3 2 2 3 5 5 3 2 3 4 5 5 5 5 5 5 4 4 5 6 7 8 8 9 9 9 9 9 8 7 7 7 8 9 9 10 10 10 10 10 10 11 11 11 10 10 11 10 9 9 8 10 12 12 11 12 12 14 13 12 12 12 11 11 11 12 13 14 15 15 14 14 14 15 16 18 18 19 18 17 17 17 17 17 17
10 11 8 4 6 3 2 3 2 1 2 2 2 1 1 2 3 5 5 3 3 4 5 5 6 6 6 7 6 4 5 5 6 7 8 8 9 8 8 8 7 6 7 7 8 9 9 9 9 9 9 9 10 10 11 11 12 12 11 11 11 11 10 10 11 12 14 15 16 15 14 13 12 10 9 9 9 10 11 12 13 13 14 16 16 17 18 18 19 20 20 20 19 19 19 18 18
9 6 5 6 6 3 2 1 2 1 2 3 2 3 2 3 3 4 6 5 3 3 4 5 6 7 7 8 6 5 5 4 5 6 7 7 7 7 7 6 6 6 6 7 7 9 9 8 8 8 8 8 9 9 10 11 11 12 11 11 12 13 13 12 11 12 14 14 14 13 14 14 12 10 10 10 10 11 12 12 13 14 16 17 18 18 19 19 20 21 21 21 21 21 20 19 19
13 9 9 8 6 3 2 2 5 3 4 4 5 3 4 4 3 3 4 4 4 1 2 4 5 6 8 8 7 6 5 5 4 5 5 5 6 6 6 6 5 5 6 6 7 7 8 7 7 7 7 8 8 9 9 10 10 11 12 13 14 14 14 14 13 13 14 13 13 13 15 16 15 14 15 16 14 14 14 14 15 15 16 17 18 18 19 20 20 21 21 21 22 22 22 21 20
14 16 13 9 9 6 3 1 4 3 3 5 6 2 4 3 3 2 2 3 4 2 1 3 4 5 7 8 8 7 6 5 5 4 4 4 4 5 4 5 5 5 5 5 5 6 6 6 6 6 6 7 8 9 9 10 11 11 12 13 14 15 16 16 16 16 16 16 15 15 16 18 19 18 18 20 18 16 16 16 16 17 17 18 19 20 20 21 21 22 22 22 23 23 23 23 22
13 15 14 11 10 8 5 2 4 4 2 5 8 4 2 3 3 2 2 2 3 3 2 1 2 3 5 7 8 8 7 6 6 5 4 3 3 4 3 4 4 4 4 4 4 4 4 5 5 5 6 7 8 9 9 10 11 12 13 13 14 15 15 16 17 17 18 18 16 15 15 17 18 18 17 18 18 17 17 17 17 18 19 19 20 21 21 22 23 24 25 25 25 25 23 23 23
15 9 9 12 10 10 8 5 5 6 4 6 9 5 2 3 2 2 3 3 2 3 2 0 1 1 3 6 7 8 8 7 6 6 5 4 3 3 3 3 4 4 3 3 3 3 3 4 5 6 6 7 8 9 10 10 11 12 13 13 13 14 14 15 16 17 17 17 17 16 16 16 17 17 16 16 16 17 17 18 19 19 20 20 21 22 22 23 24 25 26 27 28 27 26 24 23
10 2 5 10 9 11 9 7 8 8 7 6 6 7 3 1 1 1 2 4 3 2 2 1 1 1 1 4 5 7 7 6 6 6 5 4 3 3 3 3 3 3 2 3 3 3 3 3 5 6 7 8 9 10 10 11 11 11 12 12 12 13 13 14 15 15 16 16 17 17 17 17 17 17 17 17 17 17 17 18 19 20 20 21 22 22 23 24 25 26 27 28 28 28 27 26 25
3 4 7 6 6 5 5 6 10 9 9 8 6 11 8 3 4 3 1 3 4 4 4 2 2 2 1 2 3 5 5 6 6 6 6 5 4 3 3 3 2 2 2 2 3 3 2 3 4 5 6 8 9 10 10 11 11 11 11 12 12 12 13 13 14 14 15 16 16 17 17 17 17 17 18 18 18 18 18 19 20 21 22 22 23 24 24 25 25 26 27 28 29 30 29 29 27
6 6 10 4 2 9 10 7 12 11 11 12 7 11 13 6 7 8 5 4 4 5 6 4 2 2 2 1 1 2 3 4 5 6 6 5 5 5 4 4 3 3 3 3 3 3 3 3 4 5 6 7 8 10 10 11 12 12 12 12 12 13 13 13 13 14 15 15 16 16 17 18 19 19 19 19 19 19 20 20 21 22 23 23 24 25 25 26 26 27 27 29 30 31 31 31 29
8 11 12 8 9 16 17 14 18 17 14 14 9 10 17 13 10 10 9 7 7 6 6 6 5 4 3 3 2 1 1 2 3 4 5 5 5 6 5 5 4 4 3 4 4 4 4 4 4 5 7 8 8 9 10 11 11 12 12 12 12 12 13 13 13 14 15 16 16 17 18 19 20 20 20 21 21 21 21 22 22 23 24 25 25 26 27 27 28 28 29 29 30 31 32 32 31
12 12 14 10 14 20 22 21 19 16 13 15 17 16 19 17 13 12 10 11 10 7 6 6 6 7 6 5 3 3 2 1 1 2 4 5 5 5 5 4 4 4 4 4 4 4 4 4 5 5 6 7 7 8 9 10 11 12 13 13 13 13 13 14 15 15 16 17 17 17 18 19 20 21 21 22 22 23 23 24 25 25 26 27 27 27 28 29 30 30 30 31 31 32 32 33 32
23 16 16 17 22 25 25 22 18 16 13 19 25 21 18 18 18 15 11 11 13 12 9 7 7 9 9 8 6 5 4 2 1 0 2 4 5 5 5 4 4 3 3 4 4 3 3 4 4 5 5 5 6 7 8 10 11 12 13 14 14 15 15 15 16 16 17 18 18 17 18 19 19 20 21 22 23 24 24 25 26 27 27 28 28 28 29 30 31 31 32 32 32 33 33 33 33
28 27 25 20 21 24 24 21 19 17 17 23 26 22 23 24 23 20 15 14 15 16 14 11 10 11 10 10 9 8 6 5 4 2 1 2 4 4 4 4 4 3 2 2 2 2 2 3 4 4 5 6 7 8 9 10 11 12 13 14 14 15 15 16 16 17 17 18 18 18 18 19 19 20 22 23 24 24 25 26 26 27 28 29 29 30 30 31 32 32 33 33 33 33 34 35 35
31 31 29 21 13 16 23 26 23 21 22 27 29 26 28 26 19 18 19 18 17 17 16 13 13 12 11 11 11 10 9 8 7 5 4 3 3 3 3 3 3 2 1 1 2 2 3 3 4 5 7 8 9 10 11 12 12 13 13 14 14 15 16 16 17 18 19 20 20 20 20 21 21 21 22 23 24 25 25 26 27 28 29 30 31 31 32 32 33 34 34 34 34 34 35 36 36
29 29 30 25 19 16 21 26 23 21 20 26 31 28 28 25 17 17 20 20 19 19 18 16 14 14 13 12 11 10 11 11 10 9 8 6 4 3 3 4 4 3 3 3 4 5 5 5 6 7 8 9 11 11 12 13 13 13 14 14 14 15 15 16 17 19 20 22 22 23 23 23 24 24 25 25 26 27 27 28 28 29 30 31 32 33 33 34 34 35 35 35 35 35 36 36 37
21 26 34 29 24 19 15 24 23 21 20 23 29 27 27 27 19 17 20 19 19 19 19 20 19 17 16 16 13 11 11 12 13 13 11 10 8 6 5 5 5 5 5 6 6 7 7 8 8 9 10 11 12 13 14 14 14 14 14 14 15 15 16 17 18 19 20 22 22 23 24 24 25 25 26 27 27 29 29 30 30 30 31 32 33 34 34 35 36 36 37 37 37 36 37 37 38
19 24 29 23 19 16 11 24 26 23 21 19 21 24 27 27 21 18 19 18 16 18 22 25 23 18 18 19 16 13 11 12 14 14 14 13 12 10 8 7 7 7 7 7 8 8 9 10 11 12 12 13 14 15 15 15 15 15 15 15 16 16 17 18 18 19 20 21 21 22 22 23 24 25 25 26 27 28 29 30 31 31 31 32 33 34 35 36 37 37 38 39 38 38 38 38 39
21 24 23 18 19 16 12 16 20 18 18 16 17 23 24 23 25 24 20 18 16 18 22 25 24 21 20 21 19 17 13 11 13 15 16 15 13 13 13 10 10 10 10 10 11 11 11 13 13 14 15 16 16 17 17 17 17 17 17 17 17 17 18 19 19 20 21 22 22 22 23 23 24 25 26 27 27 28 29 30 31 31 32 33 33 34 35 36 37 38 39 40 40 40 40 40 40
21 22 20 19 22 23 21 20 19 21 24 19 13 17 22 24 28 27 23 19 17 18 22 23 23 22 22 21 20 20 15 11 12 14 15 15 14 15 16 15 14 13 13 13 14 14 14 15 16 17 17 18 19 19 19 19 19 19 19 18 18 18 19 20 20 21 22 23 24 24 25 25 25 26 27 28 29 30 30 31 31 32 32 33 33 34 35 36 38 39 39 40 40 41 42 42 42
27 20 12 13 18 21 26 33 31 29 29 24 18 18 22 26 29 29 26 21 18 20 24 24 23 23 23 21 19 19 15 11 11 13 14 15 15 16 17 17 16 17 17 17 17 17 17 18 18 19 20 20 21 22 21 21 20 20 20 19 19 20 20 21 21 22 23 24 25 26 26 26 26 27 28 29 30 30 31 32 32 33 33 33 34 34 35 36 38 39 40 40 41 42 43 43 43
33 28 20 18 22 23 27 34 35 35 34 31 26 23 24 26 28 28 23 21 21 24 27 26 23 23 23 22 21 20 17 13 12 14 15 16 15 17 19 19 18 19 21 20 20 20 20 21 21 21 21 22 23 24 23 23 22 21 21 20 20 21 22 23 23 23 24 25 27 28 28 28 27 28 28 29 30 31 32 33 34 34 34 34 35 35 36 37 38 40 41 41 42 43 44 44 44
34 30 29 27 25 22 24 30 33 34 34 36 35 29 26 25 25 26 24 21 22 24 27 25 22 22 20 20 22 20 17 15 15 16 18 19 17 17 19 19 19 20 22 21 21 22 23 24 24 23 24 24 25 25 25 24 23 22 22 21 22 22 22 23 24 25 26 27 28 29 29 29 28 29 29 30 31 32 33 34 35 35 35 35 36 36 37 38 39 40 41 42 43 44 45 45 45
31 25 25 29 27 25 22 26 31 28 25 30 35 29 24 20 21 24 24 22 22 24 26 26 25 24 17 13 14 16 18 19 18 17 19 19 18 17 18 19 19 20 21 21 21 22 24 25 25 24 24 24 25 26 25 25 24 23 22 22 22 22 23 24 25 26 27 28 29 30 30 30 30 30 30 31 32 33 34 34 35 36 36 36 36 37 38 39 40 41 42 43 44 45 46 46 46
23 23 27 30 34 33 25 22 23 17 14 20 24 21 18 19 22 22 21 22 23 25 28 28 29 29 25 21 19 20 23 22 20 18 18 19 18 17 18 19 18 19 20 19 20 22 23 24 24 23 24 24 24 24 25 24 23 23 23 23 23 23 24 25 26 27 28 29 30 31 31 31 31 31 31 32 32 33 34 35 35 36 36 37 37 38 39 40 41 42 42 44 45 46 47 47 48
22 28 35 35 31 29 23 20 18 15 14 17 18 19 18 20 24 25 24 24 24 25 27 29 31 32 33 31 28 26 25 24 22 20 18 19 19 18 18 18 19 20 19 19 20 22 23 23 22 22 23 23 23 24 25 25 24 24 24 24 23 23 24 25 26 27 29 30 31 31 31 31 31 31 31 32 33 34 35 35 36 37 37 37 38 39 40 41 42 43 43 44 46 47 47 48 48
25 29 32 31 27 25 23 23 24 23 22 18 15 18 20 20 23 26 27 25 24 25 25 28 30 31 33 32 29 28 26 25 24 22 19 18 18 18 19 20 20 20 19 19 20 22 22 22 21 21 23 23 23 25 26 27 26 25 25 25 24 24 25 25 26 28 29 30 31 31 31 31 31 31 31 32 33 34 35 35 36 37 38 38 39 39 40 41 42 43 44 45 46 46 47 48 49
26 31 27 21 22 25 27 27 28 27 25 21 15 14 17 19 21 24 27 27 25 23 23 27 29 29 30 30 26 24 23 24 25 23 21 19 18 17 20 22 21 19 19 20 21 21 22 21 21 21 23 24 23 25 27 28 27 26 25 25 25 25 25 25 26 28 29 30 31 31 30 30 30 31 32 32 33 34 34 35 37 38 39 39 40 40 40 41 43 44 45 46 46 46 47 48 49
30 32 26 19 15 15 20 25 26 27 25 22 18 17 19 20 21 23 26 27 25 22 24 29 30 28 27 26 25 25 26 25 24 25 24 21 19 18 20 22 20 19 20 20 20 21 21 21 21 21 23 24 25 26 27 28 27 26 25 26 26 25 24 25 27 28 29 30 31 31 30 30 30 31 32 33 34 34 35 36 38 39 40 40 41 41 41 42 43 44 45 46 46 47 47 48 49
33 33 29 24 19 12 15 20 22 25 27 24 23 24 24 23 24 24 24 25 26 27 30 31 30 28 28 28 31 32 31 26 23 24 23 20 17 17 18 20 19 19 20 21 21 20 21 22 22 22 23 25 26 27 28 28 27 26 25 26 27 26 25 27 28 29 30 32 32 31 31 30 30 31 32 33 34 35 36 38 39 40 40 40 41 41 41 42 43 44 45 46 46 47 47 48 49
34 33 32 29 25 19 19 21 20 23 28 26 23 25 27 25 25 26 24 25 27 29 31 31 30 30 32 33 33 32 31 28 25 23 21 19 17 16 18 19 19 20 20 21 21 22 22 22 23 24 24 25 26 27 29 29 27 26 25 26 26 27 28 29 30 31 32 32 32 32 32 30 30 31 31 32 34 35 37 38 39 40 40 40 40 41 42 42 43 44 45 45 46 47 47 47 48
Wind_Direction
79 83 83 76 70 74 77 77 77 70 69 74 73 72 71 70 67 72 80 90 96 103 98 92 94 91 90 83 80 83 83 91 94 95 101 99 88 93 95 91 91 92 94 93 92 91 93 96 98 101 105 108 108 111 114 115 121 126 129 132 136 138 138 138 130 118 107 98 88 77 69 66 66 66 72 79 81 82 83 81 79 79 77 71 61 55 51 43 37 17 336 301 297 317 351 49 74
89 87 84 81 76 79 80 71 67 63 67 75 76 72 68 70 73 76 78 86 97 103 98 97 103 102 97 89 85 89 89 98 102 98 102 102 92 92 94 94 94 95 96 95 96 97 99 101 100 101 105 110 112 113 115 118 121 123 125 127 131 129 127 127 124 117 106 93 82 71 65 62 59 58 60 66 71 73 73 72 71 66 58 50 44 38 35 31 30 18 335 285 279 293 334 37 64
85 80 79 84 85 80 72 68 65 61 65 72 76 73 66 69 75 75 75 81 88 94 97 98 97 104 104 102 101 95 94 97 100 101 104 107 100 96 96 100 101 100 99 98 100 101 104 105 102 103 105 109 111 111 113 117 120 120 120 118 118 119 122 122 120 114 104 94 84 71 62 56 51 47 47 49 48 48 43 38 31 31 30 30 29 24 24 22 23 19 359 321 302 306 338 20 57
79 81 88 94 89 79 69 69 71 67 66 66 72 75 71 70 70 71 74 79 85 90 99 101 100 109 105 107 105 96 99 91 97 106 107 107 105 105 106 107 107 106 104 103 103 102 105 106 107 107 106 107 108 108 110 114 119 120 115 113 111 111 114 114 112 104 94 80 66 52 45 40 37 35 34 30 24 20 13 9 8 10 11 14 15 14 15 16 17 14 5 349 333 320 330 0 56
86 89 94 90 83 78 70 70 73 70 68 66 71 76 75 71 69 71 76 81 86 90 96 98 103 109 108 117 112 107 114 98 100 110 110 109 107 109 112 111 110 109 109 108 108 107 107 108 110 110 109 107 107 107 110 116 123 126 121 116 110 104 103 98 88 73 61 47 36 31 30 26 26 24 19 13 7 5 3 2 1 1 3 6 8 9 9 11 13 10 5 354 340 322 317 325 277
91 92 93 85 79 75 71 72 75 70 69 72 73 77 77 73 73 77 84 86 86 92 97 97 103 105 112 125 114 116 120 105 106 110 112 117 112 113 114 111 110 111 112 112 112 112 110 109 110 110 109 106 105 108 111 116 126 129 123 117 110 101 91 79 63 49 37 28 24 24 26 22 18 14 9 2 358 359 1 1 0 1 1 2 4 5 4 5 6 7 4 357 343 322 308 298 262
98 99 96 86 77 73 71 71 74 71 71 73 70 74 77 79 81 81 84 89 90 98 101 101 108 104 116 123 112 121 119 111 113 111 116 119 116 115 115 113 111 110 113 113 112 113 112 110 108 107 107 107 105 104 105 112 124 126 115 109 96 76 66 57 48 36 26 22 22 22 20 19 15 9 4 359 358 359 3 4 4 2 360 358 358 357 354 353 357 2 2 360 351 328 311 299 277
113 102 92 87 77 73 73 68 69 69 70 68 63 69 76 82 86 86 85 87 93 105 105 112 118 104 124 125 116 126 117 114 116 115 117 116 115 112 110 111 109 110 110 110 109 109 110 110 107 107 108 109 108 106 105 108 121 130 121 94 61 41 44 42 35 30 23 20 18 17 16 16 14 9 4 1 359 0 6 7 5 2 357 353 348 344 341 341 347 354 357 358 356 342 318 304 292
123 99 89 85 79 76 75 72 70 68 68 66 61 67 71 70 73 84 89 83 86 98 108 133 129 110 136 124 119 126 116 116 117 116 115 113 111 106 105 104 103 106 106 106 107 108 110 110 109 110 113 114 114 114 112 112 123 133 124 92 62 40 50 39 33 28 23 19 17 15 14 15 14 10 5 0 357 358 3 1 359 355 350 346 340 337 336 337 340 342 344 347 350 349 335 312 297
116 100 93 83 80 82 81 75 71 69 70 70 66 67 69 67 65 76 84 79 83 91 104 115 111 125 144 122 123 120 110 113 112 112 113 113 112 108 105 101 99 99 100 102 104 107 109 109 108 108 111 113 116 117 116 120 131 139 141 136 102 81 66 44 34 29 22 18 15 14 12 13 12 8 359 350 348 349 352 348 343 339 337 336 334 333 336 335 332 331 329 332 336 341 345 330 304
100 99 95 80 71 75 79 73 65 67 67 69 71 70 70 69 67 68 75 78 79 76 73 91 106 133 134 122 131 119 108 109 108 112 113 113 113 112 110 105 101 98 98 99 99 102 103 104 102 101 104 107 111 112 116 124 136 139 137 129 90 73 62 45 37 30 23 16 9 7 5 6 4 357 346 337 336 336 336 333 328 326 329 330 328 327 326 323 321 321 318 319 319 323 337 338 322
97 90 83 70 52 47 64 71 70 68 64 63 63 65 71 72 70 67 69 77 81 76 63 81 116 131 121 125 130 120 113 112 110 113 112 110 110 112 113 109 106 104 103 101 98 97 95 96 97 100 106 108 108 106 111 121 131 133 119 103 83 70 57 42 34 28 22 11 358 352 347 348 347 339 329 324 324 326 328 326 322 321 325 324 321 320 317 312 309 310 309 309 311 310 316 320 317
87 73 61 51 38 32 36 49 60 60 64 66 55 52 63 70 76 80 77 76 84 89 78 79 110 119 119 123 119 119 118 117 115 113 110 108 106 108 110 110 112 111 110 109 106 103 100 100 102 108 113 111 107 105 112 120 128 122 106 90 78 64 49 37 30 24 15 1 347 342 341 341 339 336 331 331 335 339 342 338 334 331 331 327 321 318 314 306 303 302 302 303 304 303 304 301 295
60 62 49 33 23 17 8 7 30 48 66 66 56 45 50 67 77 81 81 82 85 90 87 85 100 112 117 116 118 119 118 118 116 113 109 105 104 105 107 111 116 116 116 117 118 119 119 118 119 121 119 115 111 114 121 126 124 106 91 77 66 55 46 38 34 29 22 10 358 352 349 346 342 340 338 342 346 347 348 345 342 342 341 339 335 331 324 314 310 309 306 303 299 295 293 291 288
43 53 44 26 11 359 350 352 11 39 53 46 50 48 48 62 73 78 84 91 92 85 88 93 92 104 115 117 119 115 112 113 111 109 106 105 105 106 108 113 116 116 118 122 127 129 130 129 127 124 122 122 123 128 129 122 109 92 85 78 73 68 63 61 58 55 46 28 12 3 351 344 338 335 335 337 340 337 335 333 330 332 334 334 335 333 329 324 322 322 318 311 304 297 290 283 280
60 45 31 15 0 342 333 337 339 25 34 31 35 36 41 47 55 74 89 92 90 79 85 96 92 99 114 118 116 110 109 110 109 108 106 106 107 108 108 111 113 115 117 121 125 125 126 124 121 120 123 127 131 131 127 120 109 99 94 88 85 80 75 70 64 58 45 23 2 352 343 338 335 334 334 334 336 334 330 328 328 327 327 325 324 323 322 320 318 317 316 314 309 305 300 288 275
71 56 33 7 347 325 315 318 311 344 18 28 26 25 25 38 45 46 78 103 88 79 79 97 103 109 115 117 114 109 110 110 110 107 105 106 107 109 109 108 109 111 116 119 121 121 122 124 124 127 131 137 139 137 133 126 118 110 101 86 77 67 55 48 39 31 20 6 353 345 345 343 340 338 337 334 331 332 329 325 327 325 320 316 316 317 316 316 314 311 311 312 311 310 311 304 286
71 69 66 22 310 301 298 292 287 318 14 20 351 4 5 0 19 6 40 121 95 89 88 99 108 115 118 115 110 109 109 109 109 107 105 105 106 110 111 110 108 108 111 115 119 121 124 131 135 136 140 144 137 131 129 124 117 107 94 79 67 52 40 36 30 28 19 5 354 348 349 345 341 339 337 331 325 324 322 317 319 318 313 311 311 310 308 311 312 312 313 312 311 310 310 311 303
75 58 29 296 242 258 285 273 308 354 25 11 338 357 3 337 338 339 0 99 93 92 92 97 97 108 119 115 110 108 108 107 107 108 106 106 107 110 109 106 105 106 107 109 112 114 118 124 126 125 125 124 116 106 102 99 95 85 74 68 60 43 28 32 34 35 23 5 353 348 348 344 339 334 328 324 320 321 320 317 319 319 317 313 310 307 302 302 303 307 313 311 308 305 304 305 305
90 63 329 309 250 245 269 306 358 21 14 3 349 358 8 354 341 335 345 39 85 92 85 90 92 108 119 115 112 109 108 109 109 108 107 107 107 106 104 101 99 100 105 107 106 105 105 106 103 101 97 94 93 84 77 72 73 72 62 61 60 47 26 25 31 33 16 359 348 343 346 346 340 333 331 329 326 329 329 325 322 319 317 314 310 306 302 301 300 302 307 309 306 301 301 301 300
96 138 183 270 283 262 240 250 331 334 340 349 359 9 31 27 346 334 346 317 296 101 231 85 105 121 118 112 112 110 108 108 108 108 107 108 107 104 100 97 93 92 100 105 104 100 96 97 96 93 89 87 84 76 69 65 70 72 61 57 60 53 35 17 14 11 0 354 351 346 346 348 345 342 341 336 333 336 335 331 327 321 317 317 316 311 305 302 302 306 308 307 304 303 303 302 300
18 167 190 240 277 241 239 217 290 306 332 1 15 23 46 40 351 355 341 283 277 221 228 156 126 127 116 109 108 108 107 105 104 104 105 107 106 101 96 94 92 90 92 95 96 96 95 94 93 91 86 83 80 72 67 65 64 62 53 49 51 43 31 10 357 354 348 349 354 354 352 352 351 348 341 337 339 339 335 330 330 329 327 328 329 325 317 310 308 313 314 308 302 303 305 304 302
302 263 208 221 231 199 280 246 225 319 24 27 15 16 41 37 7 12 314 219 138 161 194 148 130 123 111 107 108 108 106 105 103 103 105 106 103 98 96 97 98 95 92 90 89 92 96 96 93 92 84 76 76 72 67 67 55 38 37 40 42 35 26 14 358 352 345 348 354 358 1 357 353 348 340 337 338 337 333 330 331 332 330 328 328 326 324 321 317 318 318 312 306 305 306 305 302
244 271 212 189 207 206 259 241 234 8 42 25 18 18 38 34 13 17 349 145 126 133 161 139 126 118 108 103 109 111 109 111 110 108 108 108 105 102 103 105 106 104 100 95 92 91 94 98 97 94 90 83 81 79 69 64 57 40 29 30 38 40 34 20 357 350 347 348 353 359 4 1 353 346 342 339 335 335 334 331 333 333 330 328 328 326 325 324 321 319 316 313 310 307 305 303 301
264 273 247 219 222 201 212 213 268 351 28 17 26 29 41 32 17 21 35 85 108 125 137 129 116 112 107 102 107 112 116 122 124 119 117 116 111 108 109 111 110 108 106 102 97 94 93 94 92 89 86 80 74 73 64 51 47 44 31 29 37 37 35 14 347 349 353 354 358 2 7 3 354 346 346 344 337 336 335 334 337 338 336 335 331 329 327 325 322 318 315 312 311 310 306 303 301
276 269 263 252 253 199 195 189 191 109 61 37 30 38 51 39 27 34 49 70 92 115 121 117 109 109 109 109 106 113 124 131 137 133 129 127 120 118 118 118 117 114 112 108 102 97 91 86 82 77 70 64 57 57 61 51 36 38 32 36 43 27 12 355 346 354 0 1 2 6 10 4 353 347 348 348 342 338 338 342 345 345 342 335 329 328 327 325 323 320 317 315 313 312 310 306 301
254 266 268 261 248 184 187 176 132 102 69 50 37 34 43 34 34 50 63 85 96 101 105 109 110 111 115 120 119 124 137 142 144 142 139 137 130 128 128 125 125 120 115 110 104 96 88 84 76 70 62 54 48 44 50 51 37 29 19 29 53 40 5 345 351 4 3 0 4 8 10 3 353 350 350 350 349 345 346 350 350 348 342 334 330 329 329 329 329 328 325 320 314 312 310 307 303
249 260 258 249 229 191 192 186 133 78 71 61 36 12 42 36 32 46 56 88 89 85 91 102 104 110 116 115 122 129 138 144 142 144 142 140 136 132 130 127 123 117 110 104 99 93 86 82 75 68 61 51 45 38 36 37 32 22 12 14 34 48 26 358 359 4 1 2 10 11 7 2 357 354 354 353 355 355 354 354 351 348 343 341 341 338 337 337 337 336 334 328 321 315 310 306 304
248 245 236 218 213 209 219 188 167 189 66 74 70 50 94 67 42 45 45 53 75 78 80 94 96 97 103 101 106 110 118 130 129 137 141 138 136 130 125 122 118 110 103 96 93 91 85 80 74 67 63 54 44 37 31 28 27 21 15 9 12 26 30 18 7 1 0 5 13 9 357 356 355 350 355 358 360 3 4 3 359 356 355 354 354 351 348 346 344 342 340 336 330 323 317 310 304
217 214 215 223 218 210 233 277 356 330 35 21 42 84 81 34 37 47 37 36 65 88 83 94 93 88 90 89 92 93 98 111 116 126 133 133 131 126 122 116 112 106 99 95 90 87 85 79 74 69 63 58 47 39 34 28 25 22 18 11 9 14 19 19 11 5 3 6 15 7 353 350 344 340 354 3 9 14 16 14 10 7 4 0 359 357 353 351 349 345 343 340 335 331 326 318 310
221 225 231 225 214 217 220 0 335 323 52 358 339 64 89 45 24 39 25 20 46 102 116 105 95 88 90 89 89 87 84 92 104 116 119 124 122 118 116 110 107 104 98 96 92 88 87 81 75 71 65 58 49 42 38 33 27 22 18 11 7 7 8 10 7 4 1 1 10 7 355 346 339 341 348 350 358 12 16 13 10 7 4 0 358 357 355 353 350 346 344 340 337 334 330 325 319
234 233 233 209 194 213 214 0 311 291 25 339 323 26 89 63 36 33 11 0 17 46 117 116 104 97 92 88 88 84 78 75 79 92 99 110 114 109 105 104 104 101 102 101 96 92 89 86 78 72 67 56 46 40 35 32 26 20 16 10 4 1 0 1 360 359 358 357 2 2 356 349 348 355 355 351 352 3 9 6 5 3 360 358 356 354 353 352 350 347 344 341 339 336 331 326 322
228 223 225 212 193 201 207 259 284 277 304 304 306 313 86 84 67 3 336 352 352 23 61 117 118 103 94 88 85 81 78 70 67 78 90 100 104 104 100 98 101 98 101 99 95 93 86 87 80 72 64 49 37 29 23 21 18 14 11 6 2 360 358 357 355 355 355 355 356 354 353 351 351 357 359 355 353 356 0 358 358 358 356 354 352 351 351 350 349 348 345 343 341 339 335 327 321
213 205 219 223 213 212 199 188 235 268 251 249 283 290 102 98 77 5 325 341 349 7 32 202 187 105 82 87 84 78 79 75 73 76 85 99 102 105 103 91 90 85 82 81 79 82 84 86 77 69 56 41 29 20 12 9 9 5 2 0 357 356 355 353 351 351 350 351 350 347 348 348 346 348 350 350 349 351 352 351 352 352 351 349 348 348 348 348 348 348 346 344 342 341 337 331 324
204 214 269 232 210 220 214 203 231 263 259 240 267 275 260 259 289 61 302 315 323 320 337 293 220 211 57 81 82 77 81 80 78 75 75 92 98 99 98 83 73 61 52 56 56 62 81 83 72 62 46 30 21 14 8 6 5 360 354 351 350 348 347 347 345 345 345 345 345 344 344 342 339 340 341 343 344 345 345 345 345 345 346 344 344 345 345 345 346 346 345 343 342 340 338 334 330
221 31 331 238 184 240 268 265 259 265 269 264 268 272 271 251 279 301 271 286 286 276 278 265 224 222 313 32 66 67 75 83 81 76 77 90 92 88 90 83 67 34 11 23 43 51 65 69 58 45 33 22 17 12 7 5 3 359 353 347 344 340 337 337 337 337 339 340 341 340 338 334 333 334 335 337 337 337 337 338 339 340 341 340 340 341 342 342 343 343 343 342 341 340 338 337 334
285 3 343 312 274 319 335 314 283 291 282 267 261 273 277 267 276 292 295 269 239 252 275 274 256 228 244 298 15 49 53 73 84 83 87 94 93 86 79 73 60 33 13 13 30 41 47 52 38 26 23 21 20 14 9 7 3 359 356 350 345 339 332 329 329 331 332 335 339 338 334 330 331 332 332 331 330 331 332 333 334 334 336 337 337 338 338 339 339 339 339 339 339 339 338 337 336
263 288 301 310 304 309 318 305 291 297 286 271 273 276 277 282 284 282 287 279 244 235 266 281 280 263 236 243 247 239 9 49 79 87 97 103 101 92 81 70 59 46 37 33 38 49 50 42 29 21 22 22 21 18 13 11 8 4 1 356 352 345 337 331 328 328 327 331 338 339 335 332 331 330 329 328 327 328 329 329 329 329 332 333 334 335 335 335 335 335 336 336 336 337 337 336 335
191 252 265 276 287 291 294 290 284 286 292 305 314 301 282 281 284 276 275 279 272 259 262 271 276 276 267 250 234 226 235 286 61 93 110 115 111 104 94 85 73 60 51 50 52 58 53 38 27 19 21 23 20 18 15 12 11 10 7 3 359 355 347 341 337 333 329 330 334 336 334 332 330 328 326 326 326 326 326 326 326 327 328 330 331 332 333 333 332 332 332 333 334 335 334 334 333
175 199 225 242 263 274 280 282 277 274 301 321 318 313 299 290 288 284 280 281 285 285 280 275 270 270 272 266 253 243 239 249 265 140 127 131 127 125 120 114 98 77 57 51 50 51 42 30 22 13 11 13 8 6 5 5 6 6 6 4 3 360 353 347 343 338 333 331 331 331 329 328 328 327 326 326 325 325 325 324 324 324 324 325 327 328 329 330 330 330 330 329 331 332 332 331 331
180 188 198 218 255 274 274 270 271 274 296 308 306 309 310 304 293 285 287 288 288 291 286 283 277 269 270 270 270 267 259 266 276 282 239 160 151 148 145 139 128 111 79 46 30 25 17 5 0 357 351 347 347 348 349 352 354 356 358 358 359 358 354 349 345 340 335 333 333 332 330 329 328 328 327 327 326 325 324 322 321 320 320 322 324 325 326 326 327 327 327 326 327 328 328 329 329
186 189 184 186 219 261 263 259 268 276 285 292 294 300 307 306 293 282 288 289 290 289 283 285 286 279 275 271 272 275 272 275 275 272 272 250 198 174 169 171 169 165 194 274 292 306 315 324 331 334 334 332 332 334 336 340 341 344 347 348 350 350 349 346 343 340 338 337 337 336 335 333 331 330 328 327 326 324 323 321 321 320 320 322 323 323 323 324 324 324 324 323 324 324 325 326 327
186 190 179 173 183 206 242 254 266 281 282 284 287 296 302 299 288 285 288 286 288 289 284 288 290 284 283 278 271 271 273 274 271 269 269 265 255 230 211 211 218 227 242 262 272 282 293 301 311 317 320 322 322 324 326 328 330 333 336 339 342 342 340 339 338 337 337 337 338 337 336 335 332 331 329 327 326 324 323 322 322 321 321 322 322 322 321 321 321 321 321 321 321 322 322 323 324
194 188 178 173 174 180 234 253 257 275 275 272 282 294 297 293 286 283 283 278 281 291 296 296 293 286 281 278 272 265 269 272 270 271 269 267 265 256 242 232 236 244 247 257 267 274 285 292 300 306 310 312 314 314 315 319 321 324 328 331 334 336 336 335 333 332 332 333 334 334 333 332 331 329 327 326 325 323 322 322 322 322 321 321 321 320 320 319 319 319 319 319 319 320 320 321 321
218 180 176 185 186 179 235 256 256 271 272 267 282 292 293 292 288 284 284 282 289 304 304 295 289 285 277 274 271 264 266 271 270 272 272 271 269 267 265 254 250 257 258 260 267 274 283 291 297 302 306 307 307 308 309 311 314 317 322 325 328 332 333 332 331 329 327 326 326 326 326 326 326 325 324 323 322 321 321 321 322 321 321 320 320 319 318 318 317 318 318 318 318 318 319 319 319
216 170 174 211 228 214 211 245 258 257 249 256 278 284 285 288 288 288 286 289 304 312 304 294 289 286 278 271 270 270 270 269 269 272 274 272 270 270 272 270 266 267 270 271 274 279 285 290 296 299 302 304 304 305 305 308 311 314 317 320 323 325 327 328 328 326 325 323 321 320 320 321 322 322 321 321 320 320 320 321 321 321 320 319 318 318 317 317 316 317 317 317 318 318 318 319 319
190 166 175 200 223 226 204 208 234 232 226 233 250 270 281 283 281 283 285 292 304 302 299 299 291 283 277 272 274 278 274 267 270 272 273 274 273 273 272 273 273 272 274 276 278 282 285 287 292 296 299 302 303 303 303 305 308 309 311 314 317 319 321 322 323 324 324 322 320 318 317 318 319 320 320 320 320 321 321 321 320 319 319 318 317 317 316 316 316 316 316 317 317 317 317 318 319
176 174 182 192 213 228 216 207 215 221 223 222 216 230 256 266 270 277 285 294 298 293 293 296 288 276 271 272 277 280 277 272 274 274 274 275 274 273 273 274 274 273 275 276 277 280 283 285 287 290 294 298 300 301 301 302 304 304 305 307 311 314 316 317 320 322 323 322 320 317 315 315 316 317 318 319 320 320 320 319 319 319 318 317 317 316 316 315 315 315 316 316 316 316 317 318 318
181 185 191 207 223 232 230 219 215 219 221 217 215 227 241 249 265 277 283 289 289 287 288 290 286 272 266 273 279 281 283 278 277 280 279 277 274 269 270 272 272 273 275 276 277 278 280 281 282 285 290 294 296 297 297 298 300 300 301 302 306 309 312 315 318 320 321 321 319 316 314 313 313 314 316 317 318 318 319 319 319 319 318 318 317 316 315 315 315 315 315 316 316 316 317 317 317
187 190 187 197 221 232 229 227 226 230 234 228 224 239 251 248 260 270 270 276 280 281 283 283 280 271 272 284 284 283 288 286 284 287 283 278 274 268 267 272 273 273 275 277 278 279 279 280 281 283 288 292 294 294 293 294 296 297 298 299 303 306 310 312 315 317 318 319 317 315 313 311 310 311 313 315 317 317 318 318 318 318 318 317 316 315 315 314 315 315 316 317 317 317 316 317 317
193 201 198 194 210 227 229 232 236 241 251 239 230 246 264 258 263 268 265 268 271 270 274 276 278 281 285 290 285 285 292 291 288 288 288 282 274 269 270 274 276 274 276 280 281 282 282 281 282 284 288 292 295 294 292 292 293 295 296 298 301 304 307 309 312 314 315 315 315 314 312 310 310 310 312 314 316 317 317 317 317 317 317 316 315 315 315 315 315 316 317 317 317 316 316 317 317
199 214 226 215 208 218 228 232 234 242 252 237 237 259 275 271 273 273 267 267 270 270 273 276 282 287 289 290 293 296 293 288 285 287 288 283 278 278 277 276 277 278 280 284 286 286 285 284 283 286 290 294 296 295 293 292 293 294 295 297 300 302 304 307 309 311 312 313 313 313 311 310 308 309 310 313 315 316 316 316 316 316 316 315 315 315 315 316 317 317 317 317 317 317 317 318 318
210 215 224 229 218 212 220 232 242 256 252 235 240 252 255 259 265 267 267 267 272 275 276 277 281 286 290 296 303 305 297 289 288 291 288 282 282 284 282 278 278 281 286 290 291 291 289 286 284 286 291 295 297 297 295 294 294 294 295 296 299 301 303 305 307 308 309 310 312 312 310 308 307 307 309 312 314 315 315 315 315 315 315 315 316 316 316 317 317 317 317 317 317 318 318 318 318
217 227 228 237 234 215 212 232 250 259 257 252 250 244 242 249 259 263 264 263 269 277 281 281 282 285 291 297 301 299 296 293 293 293 289 283 281 280 279 279 279 283 288 289 291 292 291 288 285 285 290 294 296 297 297 296 295 295 296 297 299 300 301 303 306 307 307 309 311 311 309 307 306 306 308 311 313 314 315 315 315 315 316 316 316 317 317 317 317 317 317 317 317 318 318 318 318
215 239 241 236 229 216 212 223 237 244 250 258 259 251 252 256 259 260 260 261 270 280 284 283 283 286 290 295 295 292 295 299 297 294 291 286 281 276 275 278 280 282 283 284 286 288 289 287 284 285 288 291 295 298 298 297 296 296 297 298 300 300 300 302 306 307 308 310 311 310 308 307 306 307 309 311 312 313 314 314 315 316 317 317 318 318 318 317 317 316 316 317 318 318 319 319 318
207 223 230 231 229 227 224 225 231 235 238 244 244 243 248 248 249 253 257 263 269 273 273 274 277 282 287 291 288 285 291 295 295 294 293 289 283 278 276 277 278 279 280 282 283 283 283 282 283 286 289 290 293 297 299 298 296 297 299 301 303 303 300 303 309 311 312 312 311 310 309 309 308 308 309 310 311 312 314 316 317 318 318 318 318 318 318 317 316 317 317 318 319 319 319 319 318
214 206 208 227 240 242 236 232 234 234 236 242 244 243 244 244 246 250 255 259 259 260 262 265 273 278 280 281 280 283 288 288 288 291 292 290 286 280 277 277 279 280 280 281 283 280 277 277 281 287 290 292 293 295 299 298 296 298 301 304 307 306 303 306 311 314 315 314 312 311 310 309 308 308 309 310 312 314 316 319 319 319 319 319 319 318 318 317 317 318 318 319 319 320 321 320 318
231 209 193 205 219 227 236 239 236 231 237 247 247 244 249 253 252 252 253 255 254 257 261 263 269 273 274 276 278 282 288 290 289 288 289 290 286 279 277 278 280 282 280 280 282 281 279 278 281 286 291 293 292 293 296 298 297 298 302 305 307 307 307 310 313 315 316 314 312 311 309 309 308 308 309 312 315 317 318 319 318 318 318 319 319 319 318 318 318 318 319 319 320 321 321 320 318